Location: B?jaj?g
(11.7167°N, 92.6667°E)
Time: 17:07:47
(UTC+00:00)

CSL-04 Rocket - Pass Details

Date: 18 September 2020
Orbit: 806 x 860 km, 98.9° (Epoch: 31 October)

Event Time Altitude Azimuth Distance (km) Brightness Sun altitude
Rises 13:10:45 0° 167° (SSE) 3,325 6.6 -21.0°
Reaches altitude 10° 13:13:04 10° 167° (SSE) 2,399 5.9 -21.6°
Maximum altitude 13:18:23 89° 259° (WSW) 825 3.5 -22.9°
Drops below altitude 10° 13:23:46 10° 347° (NNW) 2,432 6.3 -24.2°
Sets 13:26:08 0° 348° (NNW) 3,374 7.1 -24.8°
